Time,TemperatureF,DewpointF,PressureIn,WindDirection,WindDirectionDegrees,WindSpeedMPH,WindSpeedGustMPH,Humidity,HourlyPrecipIn,Conditions,Clouds,dailyrainin,SoftwareType,DateUTC
2013-09-18 00:01:00,47.3,33.7,30.31,North,0,0.0,0.0,59,0.00,,CLR,0.00,VWS V13.01,2013-09-18 04:01:00,
2013-09-18 00:06:00,47.3,33.7,30.31,North,0,0.0,0.0,59,0.00,,CLR,0.00,VWS V13.01,2013-09-18 04:06:00,
2013-09-18 00:11:00,47.1,33.5,30.31,North,0,0.0,0.0,59,0.00,,CLR,0.00,VWS V13.01,2013-09-18 04:11:00,
2013-09-18 00:16:00,46.9,33.4,30.31,North,0,0.0,0.0,59,0.00,,CLR,0.00,VWS V13.01,2013-09-18 04:16:00,
2013-09-18 00:21:00,46.8,33.2,30.31,North,0,0.0,0.0,59,0.00,,CLR,0.00,VWS V13.01,2013-09-18 04:21:00,
2013-09-18 00:26:00,46.8,33.6,30.31,North,0,0.0,0.0,60,0.00,,CLR,0.00,VWS V13.01,2013-09-18 04:26:00,
2013-09-18 00:31:00,46.8,33.6,30.31,North,0,0.0,0.0,60,0.00,,CLR,0.00,VWS V13.01,2013-09-18 04:31:00,
2013-09-18 00:36:00,46.8,33.6,30.31,North,0,0.0,0.0,60,0.00,,CLR,0.00,VWS V13.01,2013-09-18 04:36:00,
2013-09-18 00:41:00,46.8,34.0,30.31,North,0,0.0,0.0,61,0.00,,CLR,0.00,VWS V13.01,2013-09-18 04:41:00,
2013-09-18 00:47:00,46.8,34.4,30.31,North,0,0.0,0.0,62,0.00,,CLR,0.00,VWS V13.01,2013-09-18 04:47:00,
2013-09-18 00:52:00,46.4,34.1,30.31,North,0,0.0,0.0,62,0.00,,SCT003,0.00,VWS V13.01,2013-09-18 04:52:00,
2013-09-18 00:57:00,46.4,34.5,30.31,North,0,0.0,0.0,63,0.00,,SCT003,0.00,VWS V13.01,2013-09-18 04:57:00,
2013-09-18 01:01:00,46.2,34.7,30.31,North,0,0.0,0.0,64,0.00,,SCT003,0.00,VWS V13.01,2013-09-18 05:01:00,
2013-09-18 01:07:00,46.2,35.1,30.31,North,0,0.0,0.0,65,0.00,,SCT003,0.00,VWS V13.01,2013-09-18 05:07:00,
2013-09-18 01:12:00,46.2,35.1,30.31,North,0,0.0,0.0,65,0.00,,SCT003,0.00,VWS V13.01,2013-09-18 05:12:00,
2013-09-18 01:17:00,46.2,35.5,30.31,North,0,0.0,0.0,66,0.00,,SCT003,0.00,VWS V13.01,2013-09-18 05:17:00,
2013-09-18 01:22:00,46.0,35.7,30.31,North,0,0.0,0.0,67,0.00,,SCT003,0.00,VWS V13.01,2013-09-18 05:22:00,
2013-09-18 01:26:00,46.0,35.7,30.31,North,0,0.0,0.0,67,0.00,,SCT003,0.00,VWS V13.01,2013-09-18 05:26:00,
2013-09-18 01:31:00,46.0,35.7,30.31,North,0,0.0,0.0,67,0.00,,SCT003,0.00,VWS V13.01,2013-09-18 05:31:00,
2013-09-18 01:36:00,45.9,35.5,30.31,North,0,0.0,0.0,67,0.00,,SCT003,0.00,VWS V13.01,2013-09-18 05:36:00,
2013-09-18 01:41:00,45.7,35.4,30.31,North,0,0.0,0.0,67,0.00,,SCT003,0.00,VWS V13.01,2013-09-18 05:41:00,
2013-09-18 01:46:00,45.5,35.2,30.31,North,0,0.0,0.0,67,0.00,,SCT003,0.00,VWS V13.01,2013-09-18 05:46:00,
2013-09-18 01:51:00,45.1,34.8,30.31,North,0,0.0,0.0,67,0.00,,BKN002,0.00,VWS V13.01,2013-09-18 05:51:00,
2013-09-18 01:56:00,45.1,34.8,30.31,North,0,0.0,0.0,67,0.00,,BKN002,0.00,VWS V13.01,2013-09-18 05:56:00,
2013-09-18 02:01:00,45.1,34.8,30.31,North,0,0.0,0.0,67,0.00,,BKN002,0.00,VWS V13.01,2013-09-18 06:01:00,
2013-09-18 02:06:00,45.1,35.2,30.31,North,0,0.0,0.0,68,0.00,,BKN002,0.00,VWS V13.01,2013-09-18 06:06:00,
2013-09-18 02:10:00,45.3,35.4,30.31,North,0,0.0,0.0,68,0.00,,BKN002,0.00,VWS V13.01,2013-09-18 06:10:00,
2013-09-18 02:15:00,45.3,35.4,30.31,North,0,0.0,0.0,68,0.00,,BKN002,0.00,VWS V13.01,2013-09-18 06:15:00,
2013-09-18 02:20:00,45.1,35.2,30.31,North,0,0.0,0.0,68,0.00,,BKN002,0.00,VWS V13.01,2013-09-18 06:20:00,
2013-09-18 02:26:00,45.0,35.0,30.31,North,0,0.0,0.0,68,0.00,,BKN002,0.00,VWS V13.01,2013-09-18 06:26:00,
2013-09-18 02:30:00,44.8,34.9,30.31,North,0,0.0,0.0,68,0.00,,BKN002,0.00,VWS V13.01,2013-09-18 06:30:00,
2013-09-18 02:35:00,44.8,35.2,30.31,North,0,0.0,0.0,69,0.00,,BKN002,0.00,VWS V13.01,2013-09-18 06:35:00,
2013-09-18 02:41:00,44.8,35.2,30.31,North,0,0.0,0.0,69,0.00,,BKN002,0.00,VWS V13.01,2013-09-18 06:41:00,
2013-09-18 02:46:00,44.8,35.2,30.31,North,0,0.0,0.0,69,0.00,,BKN002,0.00,VWS V13.01,2013-09-18 06:46:00,
2013-09-18 02:51:00,44.6,35.1,30.31,North,0,0.0,0.0,69,0.00,,OVC002,0.00,VWS V13.01,2013-09-18 06:51:00,
2013-09-18 02:56:00,44.6,35.4,30.31,North,0,0.0,0.0,70,0.00,,OVC002,0.00,VWS V13.01,2013-09-18 06:56:00,
2013-09-18 03:01:00,44.6,35.4,30.31,North,0,0.0,0.0,70,0.00,,OVC002,0.00,VWS V13.01,2013-09-18 07:01:00,
2013-09-18 03:06:00,44.4,35.3,30.31,North,0,0.0,0.0,70,0.00,,OVC002,0.00,VWS V13.01,2013-09-18 07:06:00,
2013-09-18 03:11:00,44.2,35.1,30.31,North,0,0.0,0.0,70,0.00,,OVC002,0.00,VWS V13.01,2013-09-18 07:11:00,
2013-09-18 03:16:00,44.1,35.3,30.31,North,0,0.0,0.0,71,0.00,,OVC002,0.00,VWS V13.01,2013-09-18 07:16:00,
2013-09-18 03:21:00,44.1,35.3,30.31,North,0,0.0,0.0,71,0.00,,OVC002,0.00,VWS V13.01,2013-09-18 07:21:00,
2013-09-18 03:26:00,44.2,35.5,30.31,North,0,0.0,0.0,71,0.00,,OVC002,0.00,VWS V13.01,2013-09-18 07:26:00,
2013-09-18 03:31:00,44.1,35.3,30.31,North,0,0.0,0.0,71,0.00,,OVC002,0.00,VWS V13.01,2013-09-18 07:31:00,
2013-09-18 03:36:00,44.1,35.3,30.31,North,0,0.0,0.0,71,0.00,,OVC002,0.00,VWS V13.01,2013-09-18 07:36:00,
2013-09-18 03:41:00,44.1,35.6,30.28,North,0,0.0,0.0,72,0.00,,OVC002,0.00,VWS V13.01,2013-09-18 07:41:00,
2013-09-18 03:46:00,43.9,35.5,30.28,North,0,0.0,0.0,72,0.00,,OVC002,0.00,VWS V13.01,2013-09-18 07:46:00,
2013-09-18 03:51:00,43.7,35.3,30.28,North,0,0.0,0.0,72,0.00,,OVC002,0.00,VWS V13.01,2013-09-18 07:51:00,
2013-09-18 03:56:00,43.7,35.3,30.28,North,0,0.0,0.0,72,0.00,,OVC002,0.00,VWS V13.01,2013-09-18 07:56:00,
2013-09-18 04:01:00,43.7,35.3,30.28,North,0,0.0,0.0,72,0.00,,OVC002,0.00,VWS V13.01,2013-09-18 08:01:00,
2013-09-18 04:06:00,43.5,35.1,30.28,North,0,0.0,0.0,72,0.00,,OVC002,0.00,VWS V13.01,2013-09-18 08:06:00,
2013-09-18 04:11:00,43.3,34.9,30.31,North,0,0.0,0.0,72,0.00,,OVC002,0.00,VWS V13.01,2013-09-18 08:11:00,
2013-09-18 04:16:00,43.2,34.8,30.31,North,0,0.0,0.0,72,0.00,,OVC002,0.00,VWS V13.01,2013-09-18 08:16:00,
2013-09-18 04:21:00,43.0,34.9,30.31,North,0,0.0,0.0,73,0.00,,OVC002,0.00,VWS V13.01,2013-09-18 08:21:00,
2013-09-18 04:26:00,43.0,34.9,30.31,North,0,0.0,0.0,73,0.00,,OVC002,0.00,VWS V13.01,2013-09-18 08:26:00,
2013-09-18 04:31:00,43.0,34.9,30.31,North,0,0.0,0.0,73,0.00,,OVC002,0.00,VWS V13.01,2013-09-18 08:31:00,
2013-09-18 04:36:00,43.0,35.3,30.31,North,0,0.0,0.0,74,0.00,,OVC002,0.00,VWS V13.01,2013-09-18 08:36:00,
2013-09-18 04:41:00,43.2,35.5,30.28,North,0,0.0,0.0,74,0.00,,OVC002,0.00,VWS V13.01,2013-09-18 08:41:00,
2013-09-18 04:46:00,43.0,35.3,30.28,North,0,0.0,0.0,74,0.00,,OVC002,0.00,VWS V13.01,2013-09-18 08:46:00,
2013-09-18 04:51:00,42.4,34.8,30.28,North,0,0.0,0.0,74,0.00,,OVC002,0.00,VWS V13.01,2013-09-18 08:51:00,
2013-09-18 04:56:00,42.3,34.6,30.28,North,0,0.0,0.0,74,0.00,,OVC002,0.00,VWS V13.01,2013-09-18 08:56:00,
2013-09-18 05:01:00,42.1,34.4,30.28,North,0,0.0,0.0,74,0.00,,OVC002,0.00,VWS V13.01,2013-09-18 09:01:00,
2013-09-18 05:06:00,42.1,34.7,30.31,North,0,0.0,0.0,75,0.00,,OVC002,0.00,VWS V13.01,2013-09-18 09:06:00,
2013-09-18 05:11:00,42.1,34.7,30.31,North,0,0.0,0.0,75,0.00,,OVC002,0.00,VWS V13.01,2013-09-18 09:11:00,
2013-09-18 05:16:00,42.1,34.7,30.31,North,0,0.0,0.0,75,0.00,,OVC002,0.00,VWS V13.01,2013-09-18 09:16:00,
2013-09-18 05:21:00,42.3,34.9,30.31,North,0,0.0,0.0,75,0.00,,OVC002,0.00,VWS V13.01,2013-09-18 09:21:00,
2013-09-18 05:26:00,42.6,35.6,30.31,North,0,0.0,0.0,76,0.00,,OVC002,0.00,VWS V13.01,2013-09-18 09:26:00,
2013-09-18 05:31:00,42.6,35.6,30.31,North,0,0.0,0.0,76,0.00,,OVC002,0.00,VWS V13.01,2013-09-18 09:31:00,
2013-09-18 05:36:00,42.4,35.4,30.31,North,0,0.0,0.0,76,0.00,,OVC002,0.00,VWS V13.01,2013-09-18 09:36:00,
2013-09-18 05:41:00,42.4,35.4,30.31,North,0,0.0,0.0,76,0.00,,OVC002,0.00,VWS V13.01,2013-09-18 09:41:00,
2013-09-18 05:46:00,42.4,35.4,30.31,North,0,0.0,0.0,76,0.00,,OVC002,0.00,VWS V13.01,2013-09-18 09:46:00,
2013-09-18 05:51:00,42.6,35.6,30.31,North,0,0.0,0.0,76,0.00,,OVC002,0.00,VWS V13.01,2013-09-18 09:51:00,
2013-09-18 05:56:00,42.4,35.4,30.31,North,0,0.0,0.0,76,0.00,,OVC002,0.00,VWS V13.01,2013-09-18 09:56:00,
2013-09-18 06:01:00,42.3,35.2,30.31,North,0,0.0,0.0,76,0.00,,OVC002,0.00,VWS V13.01,2013-09-18 10:01:00,
2013-09-18 06:06:00,42.1,35.1,30.31,North,0,0.0,0.0,76,0.00,,OVC002,0.00,VWS V13.01,2013-09-18 10:06:00,
2013-09-18 06:11:00,42.1,35.1,30.31,North,0,0.0,0.0,76,0.00,,OVC002,0.00,VWS V13.01,2013-09-18 10:11:00,
2013-09-18 06:16:00,41.9,34.9,30.31,North,0,0.0,0.0,76,0.00,,OVC002,0.00,VWS V13.01,2013-09-18 10:16:00,
2013-09-18 06:21:00,41.5,34.5,30.31,North,0,0.0,0.0,76,0.00,,OVC002,0.00,VWS V13.01,2013-09-18 10:21:00,
2013-09-18 06:26:00,41.4,34.4,30.31,North,0,0.0,0.0,76,0.00,,OVC002,0.00,VWS V13.01,2013-09-18 10:26:00,
2013-09-18 06:32:00,41.2,34.2,30.31,North,0,0.0,0.0,76,0.00,,OVC002,0.00,VWS V13.01,2013-09-18 10:32:00,
2013-09-18 06:37:00,41.0,34.0,30.31,North,0,0.0,0.0,76,0.00,,OVC002,0.00,VWS V13.01,2013-09-18 10:37:00,
2013-09-18 06:42:00,40.6,33.7,30.31,North,0,0.0,0.0,76,0.00,,OVC002,0.00,VWS V13.01,2013-09-18 10:42:00,
2013-09-18 06:47:00,40.6,34.0,30.31,North,0,0.0,0.0,77,0.00,,OVC002,0.00,VWS V13.01,2013-09-18 10:47:00,
2013-09-18 06:52:00,40.6,34.0,30.31,North,0,0.0,0.0,77,0.00,,OVC002,0.00,VWS V13.01,2013-09-18 10:52:00,
2013-09-18 06:57:00,40.5,33.8,30.31,North,0,0.0,0.0,77,0.00,,OVC002,0.00,VWS V13.01,2013-09-18 10:57:00,
2013-09-18 07:02:00,40.6,34.0,30.31,North,0,0.0,0.0,77,0.00,,OVC002,0.00,VWS V13.01,2013-09-18 11:02:00,
2013-09-18 07:07:00,40.6,34.0,30.31,North,0,0.0,0.0,77,0.00,,OVC002,0.00,VWS V13.01,2013-09-18 11:07:00,
2013-09-18 07:12:00,40.6,34.0,30.31,North,0,0.0,0.0,77,0.00,,OVC002,0.00,VWS V13.01,2013-09-18 11:12:00,
2013-09-18 07:17:00,40.6,34.0,30.31,North,0,0.0,0.0,77,0.00,,OVC002,0.00,VWS V13.01,2013-09-18 11:17:00,
2013-09-18 07:22:00,40.8,34.2,30.31,North,0,0.0,0.0,77,0.00,,OVC002,0.00,VWS V13.01,2013-09-18 11:22:00,
2013-09-18 07:27:00,41.2,34.5,30.31,North,0,0.0,0.0,77,0.00,,OVC002,0.00,VWS V13.01,2013-09-18 11:27:00,
2013-09-18 07:32:00,41.7,35.4,30.31,North,0,0.0,0.0,78,0.00,,OVC002,0.00,VWS V13.01,2013-09-18 11:32:00,
2013-09-18 07:37:00,42.6,36.2,30.31,North,0,0.0,0.0,78,0.00,,OVC002,0.00,VWS V13.01,2013-09-18 11:37:00,
2013-09-18 07:42:00,43.0,36.6,30.31,North,0,0.0,0.0,78,0.00,,OVC002,0.00,VWS V13.01,2013-09-18 11:42:00,
2013-09-18 07:47:00,43.0,36.6,30.31,North,0,0.0,0.0,78,0.00,,OVC002,0.00,VWS V13.01,2013-09-18 11:47:00,
2013-09-18 07:52:00,43.0,36.3,30.31,North,0,0.0,0.0,77,0.00,,OVC002,0.00,VWS V13.01,2013-09-18 11:52:00,
2013-09-18 07:57:00,43.0,36.3,30.31,North,0,0.0,0.0,77,0.00,,OVC002,0.00,VWS V13.01,2013-09-18 11:57:00,
2013-09-18 08:02:00,43.0,36.3,30.31,North,0,0.0,0.0,77,0.00,,OVC002,0.00,VWS V13.01,2013-09-18 12:02:00,
2013-09-18 08:07:00,43.0,36.3,30.31,North,0,0.0,0.0,77,0.00,,OVC002,0.00,VWS V13.01,2013-09-18 12:07:00,
2013-09-18 08:12:00,43.0,36.3,30.31,North,0,0.0,0.0,77,0.00,,OVC002,0.00,VWS V13.01,2013-09-18 12:12:00,
2013-09-18 08:17:00,43.2,36.5,30.31,North,0,0.0,0.0,77,0.00,,OVC002,0.00,VWS V13.01,2013-09-18 12:17:00,
2013-09-18 08:22:00,43.3,37.0,30.31,North,0,0.0,0.0,78,0.00,,OVC002,0.00,VWS V13.01,2013-09-18 12:22:00,
2013-09-18 08:27:00,43.7,37.3,30.31,North,0,0.0,0.0,78,0.00,,OVC002,0.00,VWS V13.01,2013-09-18 12:27:00,
2013-09-18 08:32:00,44.2,38.2,30.31,North,0,0.0,0.0,79,0.00,,OVC002,0.00,VWS V13.01,2013-09-18 12:32:00,
2013-09-18 08:37:00,44.8,38.7,30.28,North,0,0.0,0.0,79,0.00,,OVC002,0.00,VWS V13.01,2013-09-18 12:37:00,
2013-09-18 08:42:00,45.3,39.2,30.28,North,0,0.0,0.0,79,0.00,,OVC002,0.00,VWS V13.01,2013-09-18 12:42:00,
2013-09-18 08:47:00,46.2,40.1,30.28,North,0,0.0,0.0,79,0.00,,OVC002,0.00,VWS V13.01,2013-09-18 12:47:00,
2013-09-18 08:52:00,46.9,40.8,30.28,North,0,0.0,0.0,79,0.00,,OVC002,0.00,VWS V13.01,2013-09-18 12:52:00,
2013-09-18 08:57:00,47.7,41.8,30.28,North,0,0.0,0.0,80,0.00,,OVC002,0.00,VWS V13.01,2013-09-18 12:57:00,
2013-09-18 09:02:00,48.7,42.9,30.28,North,0,0.0,0.0,80,0.00,,OVC002,0.00,VWS V13.01,2013-09-18 13:02:00,
2013-09-18 09:07:00,49.6,43.7,30.31,North,0,0.0,0.0,80,0.00,,OVC002,0.00,VWS V13.01,2013-09-18 13:07:00,
2013-09-18 09:12:00,50.4,44.1,30.31,North,0,0.0,0.0,79,0.00,,OVC002,0.00,VWS V13.01,2013-09-18 13:12:00,
2013-09-18 09:18:00,51.3,45.0,30.31,North,0,0.0,0.0,79,0.00,,OVC002,0.00,VWS V13.01,2013-09-18 13:18:00,
2013-09-18 09:23:00,52.5,46.5,30.31,North,0,0.0,0.0,80,0.00,,OVC002,0.00,VWS V13.01,2013-09-18 13:23:00,
2013-09-18 09:28:00,53.6,47.6,30.31,North,0,0.0,0.0,80,0.00,,OVC002,0.00,VWS V13.01,2013-09-18 13:28:00,
2013-09-18 09:33:00,54.7,48.6,30.31,North,0,0.0,0.0,80,0.00,,OVC002,0.00,VWS V13.01,2013-09-18 13:33:00,
2013-09-18 09:38:00,55.9,49.9,30.31,North,0,0.0,0.0,80,0.00,,OVC002,0.00,VWS V13.01,2013-09-18 13:38:00,
2013-09-18 09:43:00,56.5,50.1,30.31,North,0,0.0,0.0,79,0.00,,OVC002,0.00,VWS V13.01,2013-09-18 13:43:00,
2013-09-18 09:48:00,57.0,50.6,30.31,North,0,0.0,0.0,79,0.00,,OVC002,0.00,VWS V13.01,2013-09-18 13:48:00,
2013-09-18 09:53:00,57.6,49.0,30.28,North,0,0.0,0.0,73,0.00,,OVC002,0.00,VWS V13.01,2013-09-18 13:53:00,
2013-09-18 09:58:00,57.9,49.3,30.28,North,0,0.0,0.0,73,0.00,,OVC002,0.00,VWS V13.01,2013-09-18 13:58:00,
2013-09-18 10:03:00,58.5,50.2,30.28,North,0,0.0,0.0,74,0.00,,OVC002,0.00,VWS V13.01,2013-09-18 14:03:00,
2013-09-18 10:08:00,59.2,50.9,30.28,North,0,0.0,0.0,74,0.00,,OVC002,0.00,VWS V13.01,2013-09-18 14:08:00,
2013-09-18 10:13:00,59.9,51.2,30.28,North,0,0.0,0.0,73,0.00,,OVC002,0.00,VWS V13.01,2013-09-18 14:13:00,
2013-09-18 10:18:00,60.6,51.9,30.28,North,0,0.0,0.0,73,0.00,,OVC002,0.00,VWS V13.01,2013-09-18 14:18:00,
2013-09-18 10:23:00,61.7,51.8,30.28,North,0,0.0,0.0,70,0.00,,OVC002,0.00,VWS V13.01,2013-09-18 14:23:00,
2013-09-18 10:28:00,62.6,49.8,30.28,North,0,0.0,0.0,63,0.00,,OVC002,0.00,VWS V13.01,2013-09-18 14:28:00,
2013-09-18 10:33:00,63.0,49.8,30.28,North,0,0.0,0.0,62,0.00,,OVC002,0.00,VWS V13.01,2013-09-18 14:33:00,
2013-09-18 10:38:00,63.0,45.6,30.28,North,0,0.0,0.0,53,0.00,,OVC002,0.00,VWS V13.01,2013-09-18 14:38:00,
2013-09-18 10:43:00,64.2,47.2,30.28,North,0,0.0,0.0,54,0.00,,OVC002,0.00,VWS V13.01,2013-09-18 14:43:00,
2013-09-18 10:48:00,65.5,45.8,30.28,North,0,0.0,0.0,49,0.00,,OVC002,0.00,VWS V13.01,2013-09-18 14:48:00,
2013-09-18 10:53:00,66.2,44.2,30.28,North,0,0.0,0.0,45,0.00,,CLR,0.00,VWS V13.01,2013-09-18 14:53:00,
2013-09-18 10:58:00,66.4,44.4,30.28,North,0,0.0,0.0,45,0.00,,CLR,0.00,VWS V13.01,2013-09-18 14:58:00,
2013-09-18 11:04:00,66.7,42.3,30.28,North,0,0.0,0.0,41,0.00,,CLR,0.00,VWS V13.01,2013-09-18 15:04:00,
2013-09-18 11:09:00,66.4,41.3,30.28,North,0,0.0,0.0,40,0.00,,CLR,0.00,VWS V13.01,2013-09-18 15:09:00,
2013-09-18 11:14:00,67.1,41.3,30.28,North,0,0.0,0.0,39,0.00,,CLR,0.00,VWS V13.01,2013-09-18 15:14:00,
2013-09-18 11:19:00,67.6,39.8,30.28,North,0,0.0,0.0,36,0.00,,CLR,0.00,VWS V13.01,2013-09-18 15:19:00,
2013-09-18 11:24:00,67.6,39.8,30.28,North,0,0.0,0.0,36,0.00,,CLR,0.00,VWS V13.01,2013-09-18 15:24:00,
2013-09-18 11:30:00,67.8,39.2,30.28,North,0,0.0,0.0,35,0.00,,CLR,0.00,VWS V13.01,2013-09-18 15:30:00,
2013-09-18 11:35:00,67.6,38.3,30.28,North,0,0.0,0.0,34,0.00,,CLR,0.00,VWS V13.01,2013-09-18 15:35:00,
2013-09-18 11:40:00,67.8,37.7,30.28,North,0,0.0,0.0,33,0.00,,CLR,0.00,VWS V13.01,2013-09-18 15:40:00,
2013-09-18 11:45:00,67.8,36.9,30.28,North,0,0.0,0.0,32,0.00,,CLR,0.00,VWS V13.01,2013-09-18 15:45:00,
2013-09-18 11:50:00,68.7,36.1,30.28,North,0,0.0,0.0,30,0.00,,CLR,0.00,VWS V13.01,2013-09-18 15:50:00,
2013-09-18 11:55:00,68.9,35.4,30.25,North,0,0.0,0.0,29,0.00,,CLR,0.00,VWS V13.01,2013-09-18 15:55:00,
2013-09-18 12:00:00,68.7,35.2,30.25,North,0,0.0,0.0,29,0.00,,CLR,0.00,VWS V13.01,2013-09-18 16:00:00,
2013-09-18 12:01:00,68.7,34.3,30.25,North,0,0.0,0.0,28,0.00,,CLR,0.00,VWS V13.01,2013-09-18 16:01:00,
2013-09-18 12:06:00,68.7,34.3,30.25,North,0,0.0,0.0,28,0.00,,CLR,0.00,VWS V13.01,2013-09-18 16:06:00,
2013-09-18 12:11:00,68.5,32.3,30.25,North,0,0.0,0.0,26,0.00,,CLR,0.00,VWS V13.01,2013-09-18 16:11:00,
2013-09-18 12:16:00,69.3,33.9,30.25,North,0,0.0,0.0,27,0.00,,CLR,0.00,VWS V13.01,2013-09-18 16:16:00,
2013-09-18 12:21:00,69.8,33.4,30.25,North,0,0.0,0.0,26,0.00,,CLR,0.00,VWS V13.01,2013-09-18 16:21:00,
2013-09-18 12:26:00,69.4,32.1,30.25,North,0,0.0,0.0,25,0.00,,CLR,0.00,VWS V13.01,2013-09-18 16:26:00,
2013-09-18 12:31:00,69.4,32.1,30.25,North,0,0.0,0.0,25,0.00,,CLR,0.00,VWS V13.01,2013-09-18 16:31:00,
2013-09-18 12:36:00,69.6,32.3,30.25,North,0,0.0,0.0,25,0.00,,CLR,0.00,VWS V13.01,2013-09-18 16:36:00,
2013-09-18 12:41:00,70.0,32.6,30.25,North,0,0.0,0.0,25,0.00,,CLR,0.00,VWS V13.01,2013-09-18 16:41:00,
2013-09-18 12:46:00,70.0,32.6,30.25,North,0,0.0,0.0,25,0.00,,CLR,0.00,VWS V13.01,2013-09-18 16:46:00,
2013-09-18 12:51:00,71.2,32.6,30.25,North,0,0.0,0.0,24,0.00,,CLR,0.00,VWS V13.01,2013-09-18 16:51:00,
2013-09-18 12:56:00,72.5,33.7,30.25,North,0,0.0,0.0,24,0.00,,CLR,0.00,VWS V13.01,2013-09-18 16:56:00,
2013-09-18 13:01:00,73.0,33.1,30.25,North,0,0.0,0.0,23,0.00,,CLR,0.00,VWS V13.01,2013-09-18 17:01:00,
2013-09-18 13:06:00,72.7,31.7,30.25,North,0,0.0,0.0,22,0.00,,CLR,0.00,VWS V13.01,2013-09-18 17:06:00,
2013-09-18 13:11:00,72.5,31.5,30.22,North,0,0.0,0.0,22,0.00,,CLR,0.00,VWS V13.01,2013-09-18 17:11:00,
2013-09-18 13:16:00,72.5,31.5,30.22,North,0,0.0,0.0,22,0.00,,CLR,0.00,VWS V13.01,2013-09-18 17:16:00,
2013-09-18 13:21:00,72.9,31.8,30.22,North,0,0.0,0.0,22,0.00,,CLR,0.00,VWS V13.01,2013-09-18 17:21:00,
2013-09-18 13:26:00,72.7,31.7,30.22,North,0,0.0,0.0,22,0.00,,CLR,0.00,VWS V13.01,2013-09-18 17:26:00,
2013-09-18 13:31:00,73.2,32.1,30.22,North,0,0.0,0.0,22,0.00,,CLR,0.00,VWS V13.01,2013-09-18 17:31:00,
2013-09-18 13:37:00,73.9,31.6,30.22,North,0,0.0,0.0,21,0.00,,CLR,0.00,VWS V13.01,2013-09-18 17:37:00,
2013-09-18 13:42:00,73.9,31.6,30.22,North,0,0.0,0.0,21,0.00,,CLR,0.00,VWS V13.01,2013-09-18 17:42:00,
2013-09-18 13:47:00,74.3,31.9,30.22,North,0,0.0,0.0,21,0.00,,CLR,0.00,VWS V13.01,2013-09-18 17:47:00,
2013-09-18 13:52:00,74.8,32.3,30.22,North,0,0.0,0.0,21,0.00,,CLR,0.00,VWS V13.01,2013-09-18 17:52:00,
2013-09-18 13:57:00,75.2,32.6,30.22,North,0,0.0,0.0,21,0.00,,CLR,0.00,VWS V13.01,2013-09-18 17:57:00,
2013-09-18 14:02:00,75.7,33.1,30.22,North,0,0.0,0.0,21,0.00,,CLR,0.00,VWS V13.01,2013-09-18 18:02:00,
2013-09-18 14:07:00,75.9,33.2,30.19,North,0,0.0,0.0,21,0.00,,CLR,0.00,VWS V13.01,2013-09-18 18:07:00,
2013-09-18 14:12:00,75.9,32.0,30.19,North,0,0.0,0.0,20,0.00,,CLR,0.00,VWS V13.01,2013-09-18 18:12:00,
2013-09-18 14:17:00,76.1,33.4,30.19,North,0,0.0,0.0,21,0.00,,CLR,0.00,VWS V13.01,2013-09-18 18:17:00,
2013-09-18 14:22:00,75.9,33.2,30.19,North,0,0.0,0.0,21,0.00,,CLR,0.00,VWS V13.01,2013-09-18 18:22:00,
2013-09-18 14:27:00,75.9,33.2,30.19,North,0,0.0,0.0,21,0.00,,CLR,0.00,VWS V13.01,2013-09-18 18:27:00,
2013-09-18 14:32:00,75.9,33.2,30.19,North,0,0.0,0.0,21,0.00,,CLR,0.00,VWS V13.01,2013-09-18 18:32:00,
2013-09-18 14:37:00,75.7,33.1,30.19,North,0,0.0,0.0,21,0.00,,CLR,0.00,VWS V13.01,2013-09-18 18:37:00,
2013-09-18 14:42:00,75.4,32.8,30.19,North,0,0.0,0.0,21,0.00,,CLR,0.00,VWS V13.01,2013-09-18 18:42:00,
2013-09-18 14:47:00,74.8,32.3,30.19,North,0,0.0,0.0,21,0.00,,CLR,0.00,VWS V13.01,2013-09-18 18:47:00,
2013-09-18 14:52:00,74.1,31.7,30.19,North,0,0.0,0.0,21,0.00,,CLR,0.00,VWS V13.01,2013-09-18 18:52:00,
2013-09-18 14:58:00,74.1,31.7,30.19,North,0,0.0,0.0,21,0.00,,CLR,0.00,VWS V13.01,2013-09-18 18:58:00,
2013-09-18 15:03:00,73.8,31.4,30.19,North,0,0.0,0.0,21,0.00,,CLR,0.00,VWS V13.01,2013-09-18 19:03:00,
2013-09-18 15:08:00,73.8,31.4,30.19,North,0,0.0,0.0,21,0.00,,CLR,0.00,VWS V13.01,2013-09-18 19:08:00,
2013-09-18 15:13:00,73.9,32.7,30.19,North,0,0.0,0.0,22,0.00,,CLR,0.00,VWS V13.01,2013-09-18 19:13:00,
2013-09-18 15:18:00,73.8,32.6,30.19,North,0,0.0,0.0,22,0.00,,CLR,0.00,VWS V13.01,2013-09-18 19:18:00,
2013-09-18 15:23:00,73.8,32.6,30.19,North,0,0.0,0.0,22,0.00,,CLR,0.00,VWS V13.01,2013-09-18 19:23:00,
2013-09-18 15:28:00,73.8,32.6,30.19,North,0,0.0,0.0,22,0.00,,CLR,0.00,VWS V13.01,2013-09-18 19:28:00,
2013-09-18 15:33:00,73.6,32.4,30.19,North,0,0.0,0.0,22,0.00,,CLR,0.00,VWS V13.01,2013-09-18 19:33:00,
2013-09-18 15:38:00,73.2,32.1,30.16,North,0,0.0,0.0,22,0.00,,CLR,0.00,VWS V13.01,2013-09-18 19:38:00,
2013-09-18 15:43:00,72.9,31.8,30.16,North,0,0.0,0.0,22,0.00,,CLR,0.00,VWS V13.01,2013-09-18 19:43:00,
2013-09-18 15:48:00,72.7,31.7,30.16,North,0,0.0,0.0,22,0.00,,CLR,0.00,VWS V13.01,2013-09-18 19:48:00,
2013-09-18 15:53:00,72.7,31.7,30.16,North,0,0.0,0.0,22,0.00,,CLR,0.00,VWS V13.01,2013-09-18 19:53:00,
2013-09-18 15:59:00,72.5,31.5,30.16,North,0,0.0,0.0,22,0.00,,CLR,0.00,VWS V13.01,2013-09-18 19:59:00,
2013-09-18 16:04:00,72.3,31.4,30.16,North,0,0.0,0.0,22,0.00,,CLR,0.00,VWS V13.01,2013-09-18 20:04:00,
2013-09-18 16:10:00,72.0,31.1,30.16,North,0,0.0,0.0,22,0.00,,CLR,0.00,VWS V13.01,2013-09-18 20:10:00,
2013-09-18 16:15:00,72.1,31.2,30.16,North,0,0.0,0.0,22,0.00,,CLR,0.00,VWS V13.01,2013-09-18 20:15:00,
2013-09-18 16:20:00,72.3,31.4,30.16,North,0,0.0,0.0,22,0.00,,CLR,0.00,VWS V13.01,2013-09-18 20:20:00,
2013-09-18 16:25:00,72.1,31.2,30.16,North,0,0.0,0.0,22,0.00,,CLR,0.00,VWS V13.01,2013-09-18 20:25:00,
2013-09-18 16:30:00,72.0,31.1,30.16,North,0,0.0,0.0,22,0.00,,CLR,0.00,VWS V13.01,2013-09-18 20:30:00,
2013-09-18 16:35:00,72.0,31.1,30.16,North,0,0.0,0.0,22,0.00,,CLR,0.00,VWS V13.01,2013-09-18 20:35:00,
2013-09-18 16:40:00,72.3,31.4,30.16,North,0,0.0,0.0,22,0.00,,CLR,0.00,VWS V13.01,2013-09-18 20:40:00,
2013-09-18 16:45:00,72.5,32.6,30.16,North,0,0.0,0.0,23,0.00,,CLR,0.00,VWS V13.01,2013-09-18 20:45:00,
2013-09-18 16:50:00,72.3,31.4,30.16,North,0,0.0,0.0,22,0.00,,CLR,0.00,VWS V13.01,2013-09-18 20:50:00,
2013-09-18 16:55:00,72.1,32.3,30.16,North,0,0.0,0.0,23,0.00,,CLR,0.00,VWS V13.01,2013-09-18 20:55:00,
2013-09-18 17:00:00,71.6,31.9,30.16,North,0,0.0,0.0,23,0.00,,CLR,0.00,VWS V13.01,2013-09-18 21:00:00,
2013-09-18 17:05:00,71.1,31.4,30.16,North,0,0.0,0.0,23,0.00,,CLR,0.00,VWS V13.01,2013-09-18 21:05:00,
2013-09-18 17:10:00,70.3,30.8,30.16,North,0,0.0,0.0,23,0.00,,CLR,0.00,VWS V13.01,2013-09-18 21:10:00,
2013-09-18 17:15:00,69.8,30.4,30.16,North,0,0.0,0.0,23,0.00,,CLR,0.00,VWS V13.01,2013-09-18 21:15:00,
2013-09-18 17:20:00,69.6,31.3,30.16,North,0,0.0,0.0,24,0.00,,CLR,0.00,VWS V13.01,2013-09-18 21:20:00,
2013-09-18 17:25:00,69.3,31.0,30.16,North,0,0.0,0.0,24,0.00,,CLR,0.00,VWS V13.01,2013-09-18 21:25:00,
2013-09-18 17:30:00,68.9,30.6,30.16,North,0,0.0,0.0,24,0.00,,CLR,0.00,VWS V13.01,2013-09-18 21:30:00,
2013-09-18 17:35:00,68.5,31.4,30.16,North,0,0.0,0.0,25,0.00,,CLR,0.00,VWS V13.01,2013-09-18 21:35:00,
2013-09-18 17:41:00,68.2,30.0,30.16,North,0,0.0,0.0,24,0.00,,CLR,0.00,VWS V13.01,2013-09-18 21:41:00,
2013-09-18 17:46:00,67.8,30.7,30.16,North,0,0.0,0.0,25,0.00,,CLR,0.00,VWS V13.01,2013-09-18 21:46:00,
2013-09-18 17:51:00,67.3,31.2,30.16,North,0,0.0,0.0,26,0.00,,CLR,0.00,VWS V13.01,2013-09-18 21:51:00,
2013-09-18 17:56:00,66.9,31.9,30.16,North,0,0.0,0.0,27,0.00,,CLR,0.00,VWS V13.01,2013-09-18 21:56:00,
2013-09-18 18:01:00,66.6,31.6,30.16,North,0,0.0,0.0,27,0.00,,CLR,0.00,VWS V13.01,2013-09-18 22:01:00,
2013-09-18 18:06:00,66.0,32.9,30.16,North,0,0.0,0.0,29,0.00,,CLR,0.00,VWS V13.01,2013-09-18 22:06:00,
2013-09-18 18:11:00,65.7,33.4,30.16,North,0,0.0,0.0,30,0.00,,CLR,0.00,VWS V13.01,2013-09-18 22:11:00,
2013-09-18 18:16:00,65.3,34.7,30.16,North,0,0.0,0.0,32,0.00,,CLR,0.00,VWS V13.01,2013-09-18 22:16:00,
2013-09-18 18:21:00,64.9,35.2,30.16,North,0,0.0,0.0,33,0.00,,CLR,0.00,VWS V13.01,2013-09-18 22:21:00,
2013-09-18 18:26:00,64.6,34.8,30.16,North,0,0.0,0.0,33,0.00,,CLR,0.00,VWS V13.01,2013-09-18 22:26:00,
2013-09-18 18:31:00,64.2,35.3,30.16,North,0,0.0,0.0,34,0.00,,CLR,0.00,VWS V13.01,2013-09-18 22:31:00,
2013-09-18 18:36:00,64.2,35.3,30.14,North,0,0.0,0.0,34,0.00,,CLR,0.00,VWS V13.01,2013-09-18 22:36:00,
2013-09-18 18:41:00,64.0,35.1,30.14,North,0,0.0,0.0,34,0.00,,CLR,0.00,VWS V13.01,2013-09-18 22:41:00,
2013-09-18 18:46:00,63.7,35.5,30.14,North,0,0.0,0.0,35,0.00,,CLR,0.00,VWS V13.01,2013-09-18 22:46:00,
2013-09-18 18:51:00,63.7,35.5,30.14,North,0,0.0,0.0,35,0.00,,CLR,0.00,VWS V13.01,2013-09-18 22:51:00,
2013-09-18 18:56:00,63.3,35.2,30.14,North,0,0.0,0.0,35,0.00,,CLR,0.00,VWS V13.01,2013-09-18 22:56:00,
2013-09-18 19:01:00,63.0,34.9,30.14,North,0,0.0,0.0,35,0.00,,CLR,0.00,VWS V13.01,2013-09-18 23:01:00,
2013-09-18 19:06:00,63.1,35.1,30.14,North,0,0.0,0.0,35,0.00,,CLR,0.00,VWS V13.01,2013-09-18 23:06:00,
2013-09-18 19:11:00,63.0,35.6,30.14,North,0,0.0,0.0,36,0.00,,CLR,0.00,VWS V13.01,2013-09-18 23:11:00,
2013-09-18 19:16:00,63.0,35.6,30.14,North,0,0.0,0.0,36,0.00,,CLR,0.00,VWS V13.01,2013-09-18 23:16:00,
2013-09-18 19:22:00,62.6,35.3,30.14,North,0,0.0,0.0,36,0.00,,CLR,0.00,VWS V13.01,2013-09-18 23:22:00,
2013-09-18 19:27:00,62.4,35.8,30.14,North,0,0.0,0.0,37,0.00,,CLR,0.00,VWS V13.01,2013-09-18 23:27:00,
2013-09-18 19:32:00,62.2,35.7,30.14,North,0,0.0,0.0,37,0.00,,CLR,0.00,VWS V13.01,2013-09-18 23:32:00,
2013-09-18 19:37:00,61.9,35.3,30.14,North,0,0.0,0.0,37,0.00,,CLR,0.00,VWS V13.01,2013-09-18 23:37:00,
2013-09-18 19:42:00,61.7,35.2,30.14,North,0,0.0,0.0,37,0.00,,CLR,0.00,VWS V13.01,2013-09-18 23:42:00,
2013-09-18 19:47:00,61.7,35.2,30.14,North,0,0.0,0.0,37,0.00,,CLR,0.00,VWS V13.01,2013-09-18 23:47:00,
2013-09-18 19:52:00,61.5,35.0,30.14,North,0,0.0,0.0,37,0.00,,CLR,0.00,VWS V13.01,2013-09-18 23:52:00,
2013-09-18 19:57:00,61.3,34.9,30.14,North,0,0.0,0.0,37,0.00,,CLR,0.00,VWS V13.01,2013-09-18 23:57:00,
2013-09-18 20:02:00,61.0,35.2,30.14,North,0,0.0,0.0,38,0.00,,CLR,0.00,VWS V13.01,2013-09-19 00:02:00,
2013-09-18 20:08:00,61.0,35.2,30.14,North,0,0.0,0.0,38,0.00,,CLR,0.00,VWS V13.01,2013-09-19 00:08:00,
2013-09-18 20:13:00,60.8,35.7,30.14,North,0,0.0,0.0,39,0.00,,CLR,0.00,VWS V13.01,2013-09-19 00:13:00,
2013-09-18 20:18:00,60.4,35.4,30.14,North,0,0.0,0.0,39,0.00,,CLR,0.00,VWS V13.01,2013-09-19 00:18:00,
2013-09-18 20:23:00,59.9,35.5,30.14,North,0,0.0,0.0,40,0.00,,CLR,0.00,VWS V13.01,2013-09-19 00:23:00,
2013-09-18 20:29:00,59.7,36.0,30.14,North,0,0.0,0.0,41,0.00,,CLR,0.00,VWS V13.01,2013-09-19 00:29:00,
2013-09-18 20:34:00,59.4,35.7,30.14,North,0,0.0,0.0,41,0.00,,CLR,0.00,VWS V13.01,2013-09-19 00:34:00,
2013-09-18 20:39:00,58.8,35.2,30.16,North,0,0.0,0.0,41,0.00,,CLR,0.00,VWS V13.01,2013-09-19 00:39:00,
2013-09-18 20:44:00,58.3,35.3,30.16,North,0,0.0,0.0,42,0.00,,CLR,0.00,VWS V13.01,2013-09-19 00:44:00,
2013-09-18 20:49:00,58.1,35.7,30.16,North,0,0.0,0.0,43,0.00,,CLR,0.00,VWS V13.01,2013-09-19 00:49:00,
2013-09-18 20:54:00,57.9,36.2,30.16,North,0,0.0,0.0,44,0.00,,CLR,0.00,VWS V13.01,2013-09-19 00:54:00,
2013-09-18 20:59:00,57.7,36.6,30.16,North,0,0.0,0.0,45,0.00,,CLR,0.00,VWS V13.01,2013-09-19 00:59:00,
2013-09-18 21:04:00,57.6,36.4,30.16,North,0,0.0,0.0,45,0.00,,CLR,0.00,VWS V13.01,2013-09-19 01:04:00,
2013-09-18 21:09:00,57.6,36.4,30.16,North,0,0.0,0.0,45,0.00,,CLR,0.00,VWS V13.01,2013-09-19 01:09:00,
2013-09-18 21:14:00,57.6,36.4,30.16,North,0,0.0,0.0,45,0.00,,CLR,0.00,VWS V13.01,2013-09-19 01:14:00,
2013-09-18 21:19:00,57.6,36.4,30.16,North,0,0.0,0.0,45,0.00,,CLR,0.00,VWS V13.01,2013-09-19 01:19:00,
2013-09-18 21:24:00,57.6,36.4,30.16,North,0,0.0,0.0,45,0.00,,CLR,0.00,VWS V13.01,2013-09-19 01:24:00,
2013-09-18 21:29:00,57.4,36.2,30.16,North,0,0.0,0.0,45,0.00,,CLR,0.00,VWS V13.01,2013-09-19 01:29:00,
2013-09-18 21:34:00,57.2,36.6,30.16,North,0,0.0,0.0,46,0.00,,CLR,0.00,VWS V13.01,2013-09-19 01:34:00,
2013-09-18 21:39:00,56.7,36.7,30.16,North,0,0.0,0.0,47,0.00,,CLR,0.00,VWS V13.01,2013-09-19 01:39:00,
2013-09-18 21:45:00,56.3,37.4,30.16,North,0,0.0,0.0,49,0.00,,CLR,0.00,VWS V13.01,2013-09-19 01:45:00,
2013-09-18 21:50:00,55.9,37.1,30.16,North,0,0.0,0.0,49,0.00,,CLR,0.00,VWS V13.01,2013-09-19 01:50:00,
2013-09-18 21:55:00,55.8,36.9,30.16,North,0,0.0,0.0,49,0.00,,CLR,0.00,VWS V13.01,2013-09-19 01:55:00,
2013-09-18 22:00:00,55.4,36.6,30.16,North,0,0.0,0.0,49,0.00,,CLR,0.00,VWS V13.01,2013-09-19 02:00:00,
2013-09-18 22:05:00,55.0,36.8,30.16,North,0,0.0,0.0,50,0.00,,CLR,0.00,VWS V13.01,2013-09-19 02:05:00,
2013-09-18 22:10:00,54.7,36.4,30.16,North,0,0.0,0.0,50,0.00,,CLR,0.00,VWS V13.01,2013-09-19 02:10:00,
2013-09-18 22:15:00,54.5,37.2,30.16,North,0,0.0,0.0,52,0.00,,CLR,0.00,VWS V13.01,2013-09-19 02:15:00,
2013-09-18 22:20:00,54.1,36.9,30.16,North,0,0.0,0.0,52,0.00,,CLR,0.00,VWS V13.01,2013-09-19 02:20:00,
2013-09-18 22:25:00,54.0,37.2,30.16,North,0,0.0,0.0,53,0.00,,CLR,0.00,VWS V13.01,2013-09-19 02:25:00,
2013-09-18 22:31:00,54.0,37.7,30.16,North,0,0.0,0.0,54,0.00,,CLR,0.00,VWS V13.01,2013-09-19 02:31:00,
2013-09-18 22:36:00,54.1,38.3,30.16,North,0,0.0,0.0,55,0.00,,CLR,0.00,VWS V13.01,2013-09-19 02:36:00,
2013-09-18 22:41:00,54.1,38.3,30.16,North,0,0.0,0.0,55,0.00,,CLR,0.00,VWS V13.01,2013-09-19 02:41:00,
2013-09-18 22:46:00,54.0,38.2,30.16,North,0,0.0,0.0,55,0.00,,CLR,0.00,VWS V13.01,2013-09-19 02:46:00,
2013-09-18 22:51:00,53.6,37.8,30.16,North,0,0.0,0.0,55,0.00,,CLR,0.00,VWS V13.01,2013-09-19 02:51:00,
2013-09-18 22:56:00,53.4,38.1,30.16,North,0,0.0,0.0,56,0.00,,CLR,0.00,VWS V13.01,2013-09-19 02:56:00,
2013-09-18 23:01:00,53.4,38.6,30.16,North,0,0.0,0.0,57,0.00,,CLR,0.00,VWS V13.01,2013-09-19 03:01:00,
2013-09-18 23:06:00,53.6,38.8,30.16,North,0,0.0,0.0,57,0.00,,CLR,0.00,VWS V13.01,2013-09-19 03:06:00,
2013-09-18 23:11:00,53.8,38.9,30.16,North,0,0.0,0.0,57,0.00,,CLR,0.00,VWS V13.01,2013-09-19 03:11:00,
2013-09-18 23:16:00,54.1,38.8,30.16,North,0,0.0,0.0,56,0.00,,CLR,0.00,VWS V13.01,2013-09-19 03:16:00,
2013-09-18 23:22:00,54.5,38.7,30.16,North,0,0.0,0.0,55,0.00,,CLR,0.00,VWS V13.01,2013-09-19 03:22:00,
2013-09-18 23:27:00,54.7,38.8,30.16,North,0,0.0,0.0,55,0.00,,CLR,0.00,VWS V13.01,2013-09-19 03:27:00,
2013-09-18 23:32:00,54.1,37.4,30.16,North,0,0.0,0.0,53,0.00,,CLR,0.00,VWS V13.01,2013-09-19 03:32:00,
2013-09-18 23:37:00,53.6,36.9,30.16,North,0,0.0,0.0,53,0.00,,CLR,0.00,VWS V13.01,2013-09-19 03:37:00,
2013-09-18 23:42:00,53.4,36.7,30.16,North,0,0.0,0.0,53,0.00,,CLR,0.00,VWS V13.01,2013-09-19 03:42:00,
2013-09-18 23:47:00,53.1,36.4,30.16,North,0,0.0,0.0,53,0.00,,CLR,0.00,VWS V13.01,2013-09-19 03:47:00,
2013-09-18 23:52:00,52.7,36.1,30.16,North,0,0.0,0.0,53,0.00,,CLR,0.00,VWS V13.01,2013-09-19 03:52:00,
2013-09-18 23:57:00,52.3,36.2,30.16,North,0,0.0,0.0,54,0.00,,CLR,0.00,VWS V13.01,2013-09-19 03:57:00,